ECMWFFLT1_925_thetae_078.txt.gz
Theta_e
266 266 266 267 267 269 270 272 273 274 275 276 277 277 277 277 277 276 276 276 276 276 276 276 275 275 276 276 275 276 276 276 276 276 276 276 276 276 276 276 276 276 276 276 276 276 276 276 276 276 276 276 275 275 275 275 275 274 274 273 273 273 273
265 264 265 265 266 266 267 269 271 272 273 273 275 276 276 276 276 276 276 276 275 275 275 275 275 275 275 275 275 275 276 276 276 276 276 276 276 276 276 276 276 275 275 275 276 276 275 276 276 275 275 275 275 275 275 274 274 274 274 273 273 273 273
263 263 264 264 264 265 265 267 268 269 271 272 273 274 275 276 276 276 276 275 275 275 275 275 275 275 275 275 275 275 275 275 276 276 276 276 276 276 275 275 275 275 275 275 275 276 275 275 275 275 275 275 275 275 274 274 274 274 273 273 273 273 273
263 263 263 263 264 264 264 265 265 266 267 269 271 272 274 275 276 276 276 275 275 275 275 275 275 275 275 275 275 275 275 275 275 275 275 275 275 275 275 275 275 275 275 275 275 275 275 275 275 275 275 275 275 274 274 274 274 273 273 273 273 273 273
262 262 262 263 263 263 263 263 263 264 265 266 268 270 272 273 275 276 275 275 275 275 275 275 275 275 275 275 275 275 275 275 275 275 275 275 275 275 275 275 275 275 275 275 275 275 275 275 274 275 275 275 274 274 274 274 273 273 273 273 273 273 273
261 261 261 262 262 262 262 262 262 263 264 265 266 267 269 271 273 274 275 275 275 275 275 275 275 275 275 275 275 275 275 275 275 275 275 275 275 275 275 275 275 275 275 274 274 275 275 274 274 274 274 274 274 274 274 273 273 273 273 273 273 273 273
260 260 261 261 261 261 262 262 263 263 264 264 265 266 267 269 271 273 274 274 275 274 274 274 274 275 275 275 275 275 275 275 275 275 275 275 275 275 275 275 275 275 274 274 274 274 274 274 274 274 274 274 274 274 273 273 273 273 273 273 273 273 273
260 260 260 260 260 261 261 262 262 263 263 263 264 265 266 268 270 272 273 274 274 274 274 274 274 274 274 274 274 274 275 275 275 275 275 275 275 275 274 274 274 274 274 274 274 274 274 274 274 273 273 273 273 273 273 273 273 272 273 273 273 273 273
259 259 259 260 260 260 260 261 261 261 262 264 265 266 267 268 270 271 272 273 274 274 274 274 274 274 274 274 274 274 274 274 274 274 274 274 274 274 274 274 274 274 274 274 274 274 274 274 273 273 273 273 272 272 273 273 273 272 272 273 273 273 273
259 259 259 259 259 259 260 260 261 262 263 265 266 267 268 269 270 271 272 273 274 274 274 274 274 274 274 274 274 274 274 274 274 275 274 274 274 274 274 274 274 274 274 274 273 273 273 273 273 273 273 273 273 273 273 273 273 272 272 273 273 273 274
258 258 259 259 259 259 260 260 261 262 263 265 266 267 268 270 271 271 272 273 274 274 274 273 273 273 273 274 274 274 274 274 274 274 274 274 274 274 274 274 274 273 273 273 273 273 273 273 273 273 273 273 273 273 273 273 273 272 272 272 272 272 273
258 258 258 259 259 259 260 260 261 262 264 265 266 268 269 270 271 272 272 273 273 274 274 274 273 273 273 273 274 274 274 274 274 274 274 274 275 274 274 274 274 273 273 273 273 273 273 273 273 273 273 273 273 273 273 272 272 272 272 272 272 272 273
258 258 258 259 259 259 260 260 261 262 264 265 266 268 269 269 270 271 272 273 273 274 274 274 273 273 273 273 273 273 274 274 274 274 274 274 275 275 275 275 275 274 274 273 273 273 273 273 273 273 273 273 273 273 273 272 272 272 272 272 272 272 273
258 258 258 259 259 259 260 260 261 263 264 265 267 268 269 270 270 271 272 273 273 274 274 274 273 273 273 273 273 273 273 273 274 274 274 274 274 274 275 275 275 275 275 274 273 273 273 273 273 273 273 273 273 273 273 273 273 273 273 273 273 273 274
258 258 258 259 259 259 260 260 261 263 264 265 267 268 269 270 270 271 272 272 273 274 274 274 273 273 273 273 273 273 273 273 273 273 273 273 274 274 274 274 274 274 275 275 274 273 273 273 273 273 273 273 273 273 273 273 273 273 273 273 273 273 273
258 258 258 259 259 259 260 260 262 263 264 266 267 268 269 270 270 270 271 272 272 273 274 274 273 273 273 273 272 273 273 273 273 272 272 272 272 273 273 273 273 273 274 274 274 274 274 273 273 273 273 273 273 273 273 273 273 273 273 273 273 273 273
258 258 258 259 259 260 260 261 262 263 265 266 267 268 269 269 270 271 271 272 272 273 273 273 273 273 273 272 272 272 273 273 273 272 272 272 272 272 272 272 272 272 273 274 274 275 274 274 274 273 273 273 273 273 273 273 272 272 272 273 273 272 273
258 258 258 259 259 260 260 261 262 263 265 266 267 268 269 269 270 271 272 272 273 273 273 273 273 273 272 272 272 272 273 273 273 272 271 271 271 271 271 271 271 271 272 272 273 274 275 275 275 274 274 274 274 274 273 273 272 272 273 272 272 273 272
258 258 259 259 260 260 261 261 262 263 265 266 267 268 269 269 270 271 271 272 272 273 273 272 272 272 272 272 272 272 273 273 273 272 272 271 271 270 270 270 270 271 271 271 272 273 274 274 275 275 274 274 274 274 274 274 273 273 273 272 273 273 272
258 258 259 259 260 260 261 261 262 263 265 266 267 268 269 269 270 271 271 272 272 272 272 272 272 272 272 272 272 272 273 273 273 273 272 271 271 270 270 270 270 270 270 271 271 272 272 273 274 275 275 274 274 274 275 275 274 274 274 273 273 273 272
258 259 259 260 260 261 261 262 262 263 265 266 267 268 269 269 270 270 271 271 271 271 271 271 271 272 272 273 273 273 273 273 273 273 272 272 271 271 271 271 270 270 270 270 270 271 272 272 273 274 275 275 275 274 274 275 275 275 275 274 274 273 273
258 259 260 260 261 261 262 262 263 264 264 265 267 268 268 269 269 270 271 271 271 271 271 271 271 271 272 272 273 273 273 273 273 273 272 272 272 272 272 271 271 270 270 270 270 270 271 271 272 272 273 274 275 275 274 274 275 275 276 275 275 275 274
259 259 260 261 261 262 262 263 263 264 264 265 266 267 268 269 269 270 271 271 271 271 270 270 270 270 271 272 273 273 273 273 273 273 273 273 273 273 273 272 271 270 270 270 270 270 270 271 272 272 272 273 274 275 275 275 275 275 275 276 276 276 276
259 260 261 261 262 262 263 264 264 264 265 265 266 267 268 268 269 270 270 270 270 271 270 270 270 270 271 272 272 272 273 273 273 273 273 273 273 273 273 273 271 270 270 270 270 270 271 271 271 271 272 272 274 275 275 275 275 275 276 276 276 276 276
260 261 261 262 262 263 263 264 265 265 266 266 266 267 267 268 268 269 269 269 269 270 271 270 271 271 271 272 272 272 273 273 273 273 273 273 274 274 274 274 272 271 270 270 270 270 271 271 272 271 271 272 273 273 274 275 275 275 276 276 276 276 276
261 261 262 262 263 263 264 265 266 267 267 267 266 266 266 267 267 267 267 267 268 270 271 271 271 271 271 272 272 272 272 272 272 272 273 273 273 273 274 274 273 271 271 271 271 271 271 272 272 272 272 272 272 273 273 274 274 274 275 275 276 276 276
261 262 262 263 264 265 266 267 267 268 267 267 267 266 266 266 266 266 266 266 267 269 270 271 272 272 272 272 272 272 272 272 272 272 272 272 273 273 273 274 273 272 272 271 271 271 272 272 272 272 273 273 273 273 274 274 274 274 275 275 275 275 276
262 262 263 265 266 267 267 267 268 268 268 268 267 267 267 267 266 266 266 266 267 269 270 271 271 272 272 272 271 271 271 271 271 271 272 272 273 273 273 274 274 273 273 273 272 272 273 273 273 274 274 274 274 274 274 274 274 274 275 275 275 275 276
262 264 265 266 266 267 267 268 269 270 270 269 269 269 268 268 268 267 267 266 267 269 270 271 271 271 271 271 271 271 271 271 271 271 272 272 273 273 273 274 274 274 274 274 274 274 274 275 275 275 275 275 275 275 275 275 275 275 275 276 276 276 276
263 265 265 266 266 266 267 268 269 271 271 270 270 270 270 270 269 269 268 267 267 268 270 270 270 270 270 270 270 271 271 272 272 272 272 272 273 274 274 274 274 275 274 274 275 275 275 276 276 276 276 275 275 275 275 275 275 275 276 276 276 276 277
263 264 265 265 265 266 266 267 269 271 271 271 271 271 271 271 271 270 269 268 268 268 269 270 270 270 270 270 271 271 271 272 272 273 273 273 273 274 275 275 275 275 275 275 275 276 276 276 276 276 276 275 275 275 275 275 276 276 276 277 277 277 277
262 263 264 264 265 265 266 267 268 270 271 272 272 272 272 272 272 272 271 270 269 268 269 270 270 270 270 270 271 271 271 272 272 273 273 274 274 275 275 275 275 276 276 276 276 276 276 277 277 277 276 276 276 276 275 276 276 276 276 277 277 277 277
261 262 262 263 264 265 265 266 268 269 270 271 272 272 272 273 273 273 272 271 269 268 270 271 271 270 271 271 271 271 272 272 272 273 274 275 275 275 276 276 276 276 276 276 276 276 276 277 277 277 276 276 276 276 276 276 276 276 276 276 276 276 276
259 260 261 262 263 263 264 265 266 267 268 269 269 270 271 271 272 272 271 270 269 269 270 271 271 271 271 271 271 271 272 272 272 273 274 275 275 275 275 275 275 276 276 276 276 276 276 276 276 276 276 276 276 276 276 277 276 276 276 276 276 276 276
258 259 260 261 262 262 262 263 264 265 266 267 266 267 268 268 267 267 267 268 268 269 269 270 270 271 271 271 271 271 271 271 272 272 272 273 273 273 274 274 275 275 275 275 275 275 276 276 276 276 276 276 276 276 276 276 276 276 276 276 276 276 275
258 258 259 260 261 261 261 261 262 263 264 264 264 264 264 264 263 263 264 264 264 265 266 267 267 268 268 269 269 269 269 270 271 272 272 272 273 273 274 274 274 274 274 275 275 275 275 275 275 275 276 276 276 275 275 275 275 276 276 276 276 276 276

ECMWFFLT1_925_thetae_081.txt.gz
Theta_e
263 262 262 262 262 262 262 262 263 263 263 264 264 264 265 266 267 268 270 272 273 275 276 277 277 277 277 276 276 276 276 276 276 276 276 276 276 276 276 276 276 276 276 276 276 276 276 277 277 277 277 277 277 277 277 277 276 276 276 276 275 275 275
262 261 261 261 261 261 261 262 262 262 263 263 263 263 263 264 264 265 267 269 271 273 274 276 276 276 276 276 276 276 276 276 275 275 275 276 276 276 276 276 276 276 276 276 276 276 276 276 276 276 276 277 277 277 277 276 276 276 276 275 275 275 275
261 261 260 260 261 261 261 261 261 261 261 262 262 262 262 263 263 264 265 266 268 270 272 274 276 276 276 276 276 275 275 275 275 275 275 275 276 276 276 276 276 276 276 276 276 276 276 276 276 276 276 276 276 276 276 276 276 276 275 275 275 275 275
260 260 260 260 260 260 260 260 260 260 261 261 261 262 262 263 263 263 264 264 265 267 269 272 274 275 276 276 275 275 275 275 275 275 275 275 275 275 276 276 276 276 276 276 276 276 276 276 275 275 276 275 276 276 276 276 275 275 275 275 274 274 274
259 259 259 259 259 259 259 260 260 260 260 261 261 262 262 263 263 264 264 264 265 265 266 268 271 274 275 276 275 275 275 275 275 275 275 275 275 275 275 276 276 276 276 276 276 276 276 276 275 275 275 275 275 275 275 275 275 275 274 274 274 274 274
259 259 259 259 259 259 259 259 259 260 260 260 260 261 261 261 262 263 263 263 264 264 265 266 268 271 274 275 275 275 275 275 274 274 275 275 275 275 275 275 276 276 276 276 276 275 275 275 275 275 275 275 275 275 275 275 274 274 274 274 274 274 274
258 258 258 258 258 258 258 259 259 259 259 259 260 260 260 260 261 261 262 262 263 264 265 265 267 269 271 274 275 275 275 274 274 274 274 274 275 275 275 275 275 275 275 275 275 275 275 275 275 275 274 274 275 275 274 274 274 273 274 274 274 274 274
258 258 258 258 258 258 258 258 258 258 259 259 259 259 260 260 261 262 263 263 264 265 266 266 267 269 270 272 274 275 274 274 274 274 274 274 275 275 275 275 275 275 275 275 275 275 275 275 275 274 274 274 274 273 273 273 273 273 273 273 274 274 274
257 257 257 257 257 257 258 258 258 258 259 259 260 261 261 262 263 263 264 265 266 266 267 267 268 269 270 271 272 274 274 274 274 274 274 274 274 274 275 275 275 275 275 275 275 275 275 274 274 274 274 273 273 273 273 273 273 273 273 273 273 273 274
257 257 257 257 257 257 257 258 258 258 259 261 262 263 264 264 264 265 265 266 266 267 267 268 269 269 270 270 271 272 274 274 274 274 274 274 274 274 275 275 275 275 275 275 275 275 275 274 274 274 274 273 273 273 273 273 273 272 273 273 272 273 274
256 257 257 257 257 257 257 257 258 259 260 262 263 264 265 265 265 266 266 266 267 267 267 268 268 269 270 271 271 272 273 274 274 274 274 274 274 274 275 275 275 275 275 275 275 274 274 274 274 274 274 274 274 273 273 273 273 272 272 272 271 272 274
256 256 257 257 257 257 257 257 258 259 261 262 263 264 264 264 265 265 266 266 267 267 268 268 269 269 270 271 272 272 273 273 273 274 274 274 274 274 275 275 275 275 275 274 274 274 274 274 274 274 274 274 274 273 273 273 273 272 272 272 271 271 273
256 256 256 257 257 257 257 257 258 259 261 262 263 263 263 264 264 265 266 267 267 268 268 269 269 270 270 271 271 272 273 273 273 273 274 274 274 275 275 275 275 275 275 274 274 274 274 274 274 274 273 274 274 273 273 272 272 272 272 272 271 272 273
256 256 256 256 257 257 257 257 258 260 261 262 262 263 264 265 265 266 267 267 268 268 269 269 269 270 270 271 271 272 273 273 273 273 273 274 274 274 275 275 275 275 275 275 274 274 274 274 274 274 274 274 274 273 273 272 272 272 273 272 272 273 273
256 256 256 256 257 257 257 258 258 260 261 262 262 264 265 265 266 266 267 267 268 268 269 269 269 270 270 271 272 272 273 273 273 273 273 273 274 274 274 274 275 275 275 275 275 274 274 274 274 274 274 274 274 273 273 273 273 274 273 273 272 272 273
256 256 256 256 257 257 257 258 259 260 261 262 263 264 264 265 266 266 267 267 268 268 269 269 269 270 271 271 272 273 273 273 273 273 273 274 273 274 274 274 274 274 275 275 275 274 274 274 274 274 274 274 274 273 274 274 273 273 273 272 272 272 272
256 256 256 256 257 257 257 258 259 260 261 262 263 264 264 265 266 266 267 267 268 268 269 269 270 270 271 272 272 273 273 273 274 273 273 273 273 273 273 274 274 274 274 275 275 275 275 274 274 274 274 274 274 273 273 273 272 272 272 272 272 272 272
256 256 256 257 257 257 258 258 259 261 262 262 263 264 265 265 266 266 267 267 268 269 269 270 270 271 271 272 272 273 273 274 274 274 273 273 273 273 273 273 273 273 274 274 274 275 275 275 275 275 275 275 274 274 273 273 272 272 272 271 272 272 272
256 256 256 257 257 258 258 259 260 261 262 263 264 265 265 265 266 267 267 268 268 269 269 270 271 271 272 272 273 273 274 274 275 274 273 273 273 273 272 272 273 273 273 273 273 274 274 274 275 275 275 275 275 274 274 273 273 273 272 271 271 272 272
256 256 257 257 258 259 259 260 260 261 263 264 265 266 266 266 266 267 268 268 268 269 269 270 271 271 272 273 273 273 274 274 275 274 273 273 272 272 272 272 272 272 272 272 272 272 273 273 273 274 274 275 275 275 274 274 273 273 272 272 272 272 272
256 256 257 258 259 259 260 261 261 262 263 264 265 266 267 267 267 267 268 268 268 269 269 270 271 271 272 273 273 274 274 274 275 274 273 273 272 272 272 272 272 272 272 271 271 271 271 272 272 272 273 274 275 275 275 274 273 273 273 273 273 272 272
256 257 258 258 259 260 261 262 262 263 264 265 266 267 268 268 268 268 268 268 269 269 270 270 271 271 271 272 273 274 274 275 275 274 273 273 272 272 273 272 271 271 271 271 271 271 271 271 271 272 272 273 274 275 274 274 274 274 273 273 273 273 273
257 257 258 259 260 261 261 262 263 264 265 266 267 268 268 269 269 269 269 269 269 269 269 270 270 271 271 272 273 274 274 275 275 275 274 273 273 273 273 272 271 271 270 270 270 270 270 270 271 271 272 272 273 274 274 274 274 274 274 274 274 274 274
257 258 258 259 260 261 262 263 264 265 266 266 267 268 269 269 269 269 269 269 269 269 269 270 270 271 271 272 273 273 274 274 275 275 274 274 274 274 273 273 271 270 270 270 270 270 270 270 270 271 271 272 273 273 274 274 274 274 275 275 274 275 275
258 258 259 260 261 261 263 264 265 266 266 267 268 269 269 269 269 269 269 268 268 268 269 270 271 271 271 272 273 273 274 274 274 275 274 274 274 274 274 273 272 271 270 270 270 270 270 270 270 271 271 272 272 273 274 274 274 274 274 275 275 275 275
258 259 260 260 261 262 264 265 265 266 266 267 268 269 269 268 268 268 268 267 267 268 268 269 271 271 272 272 272 273 273 273 273 274 274 274 274 274 274 273 272 271 270 270 270 270 270 270 270 271 271 272 272 272 273 274 274 274 275 275 275 275 275
259 259 260 261 262 263 264 265 265 265 266 267 269 269 269 269 268 267 267 267 267 268 269 269 270 271 272 272 272 272 273 273 273 273 273 273 273 273 273 273 272 271 271 270 270 270 270 270 270 271 271 271 271 272 273 274 274 274 275 275 275 275 275
259 259 260 261 263 264 265 265 265 265 266 268 270 271 270 269 268 268 267 266 267 268 269 270 271 271 272 272 272 272 272 272 272 272 272 272 272 272 273 273 272 272 271 271 270 270 270 270 271 271 271 271 271 272 272 273 274 274 274 275 275 275 275
259 260 261 262 263 264 264 264 265 265 266 269 271 271 271 270 269 269 268 267 267 268 269 270 271 271 271 271 271 271 271 271 271 271 272 272 272 271 272 272 273 272 271 271 271 271 271 271 271 272 272 272 272 272 272 272 273 273 274 275 275 275 275
259 260 261 262 263 263 264 264 264 265 266 268 270 271 272 272 271 270 269 268 267 268 269 270 270 271 271 271 271 271 271 271 271 271 271 271 271 271 272 272 273 273 272 272 271 271 271 272 272 272 273 273 272 272 273 273 273 274 274 275 275 275 275
259 259 260 261 262 263 263 263 264 265 266 268 269 270 271 273 272 271 269 268 268 269 269 270 270 270 270 270 270 270 270 271 271 271 271 271 271 272 272 272 273 273 273 273 272 272 272 273 273 274 273 274 274 274 274 274 274 274 274 275 275 275 275
258 259 259 260 261 262 263 263 263 264 265 266 267 268 269 271 272 271 270 269 269 269 270 270 270 269 270 270 270 270 270 271 271 271 272 272 272 272 273 273 273 273 274 274 273 273 273 274 275 275 274 274 275 274 274 275 275 275 275 275 276 276 276
257 258 258 259 260 261 262 263 263 264 264 265 265 265 265 267 268 268 268 267 267 268 269 270 270 270 270 270 270 270 270 271 271 271 272 272 272 273 273 273 274 274 274 274 274 274 275 275 275 276 275 275 275 275 275 275 275 275 275 276 276 276 276
256 256 257 257 258 259 261 262 262 262 263 264 264 263 263 264 265 265 265 264 264 264 265 266 267 268 268 268 269 270 270 271 271 271 272 272 272 273 274 274 274 274 274 275 275 275 275 276 276 276 275 275 275 275 275 276 276 276 276 276 276 276 276
255 255 255 256 257 257 259 260 260 261 262 263 262 261 260 261 261 261 261 261 261 262 262 263 264 264 265 265 266 267 268 268 269 270 271 272 272 273 274 274 274 275 275 275 275 275 275 276 276 276 276 276 276 275 276 276 276 276 276 276 276 276 276
254 254 255 255 256 256 258 259 259 260 260 261 260 259 258 258 258 258 259 259 260 260 261 261 261 262 262 263 263 264 265 266 267 268 270 271 273 274 274 274 274 275 275 275 275 275 275 276 276 276 276 276 276 276 276 276 276 276 276 276 275 275 275

ECMWFFLT1_925_thetae_084.txt.gz
Theta_e
261 261 261 260 260 260 260 260 260 260 260 261 261 261 261 261 261 262 262 262 262 263 263 264 264 265 267 268 271 273 274 276 276 276 276 276 276 276 276 276 276 276 276 276 276 276 276 276 276 276 276 277 277 277 277 277 277 277 277 277 277 277 277
260 260 260 260 259 259 259 260 260 260 260 260 260 260 260 260 261 261 261 262 262 262 262 263 263 264 264 266 268 270 272 274 276 276 276 276 276 276 276 276 276 276 276 276 276 276 276 276 276 276 276 276 276 277 277 277 277 277 277 277 277 277 277
260 260 259 259 259 259 259 259 259 259 259 259 259 260 260 260 260 261 261 261 262 262 262 262 263 263 264 264 265 267 269 272 274 276 276 276 276 276 276 276 276 276 275 276 276 276 276 276 276 276 276 276 276 276 276 277 277 277 277 277 277 277 277
259 259 259 259 258 259 259 259 259 259 259 259 259 259 259 260 260 260 260 261 261 261 261 262 263 263 263 264 264 265 266 268 271 274 276 276 276 276 276 276 276 276 276 275 275 276 276 276 276 276 276 276 276 276 276 276 276 276 276 277 277 276 276
259 259 258 258 258 258 258 258 258 258 258 258 258 259 259 259 259 259 259 259 260 260 260 261 261 262 262 263 263 264 264 265 267 271 274 276 275 276 276 276 275 276 275 275 275 275 276 276 276 276 276 276 275 275 276 276 276 276 276 276 276 276 276
258 258 258 258 258 257 258 258 258 258 258 258 258 258 258 258 258 258 259 259 259 259 260 260 260 261 261 262 262 263 263 264 265 268 272 275 275 275 275 275 275 275 275 275 275 275 275 276 275 275 275 275 275 275 275 275 275 275 275 275 275 275 276
258 257 257 257 257 257 257 257 257 257 257 257 257 258 258 258 258 258 259 259 260 260 261 261 261 262 262 262 262 263 263 264 265 266 269 272 275 275 275 275 275 275 275 275 275 275 275 275 275 275 275 275 275 275 275 275 274 274 274 274 275 275 275
257 257 257 257 257 257 257 257 257 257 257 257 257 257 258 258 259 259 260 261 261 262 262 262 262 263 263 263 264 264 264 265 265 266 268 270 273 275 275 275 275 275 275 275 275 275 275 275 275 275 275 275 275 274 274 274 274 274 273 274 274 275 275
256 256 256 256 256 256 256 256 256 256 257 257 258 259 259 260 261 261 262 262 262 263 263 263 263 264 264 265 265 265 266 266 267 267 268 269 271 274 275 275 275 275 275 275 275 275 275 275 275 275 276 275 274 274 274 274 274 274 274 274 274 274 275
256 256 256 256 256 256 256 256 256 256 257 259 260 261 262 262 263 263 263 263 263 264 264 264 265 265 265 265 266 266 266 267 267 268 269 269 270 272 274 274 275 275 275 275 275 275 275 275 275 275 276 275 275 274 274 274 273 273 273 273 273 273 274
256 255 256 256 255 256 256 256 256 257 258 260 262 263 263 263 263 263 263 264 264 264 264 264 264 265 265 265 265 266 266 267 267 268 268 269 270 271 273 274 274 274 275 275 275 275 275 275 275 275 275 275 275 274 274 274 273 273 273 272 272 272 273
255 255 255 255 255 255 256 256 256 257 259 261 262 263 262 262 263 263 263 263 263 263 264 264 264 264 265 265 266 266 266 267 267 268 268 269 270 271 272 273 274 274 275 275 275 275 275 275 275 275 275 275 275 274 274 274 273 273 273 272 272 272 273
255 255 255 255 255 255 255 256 256 257 259 261 262 262 263 263 263 263 263 263 263 264 264 264 265 265 265 266 266 267 267 267 268 268 269 269 270 271 272 272 273 274 275 275 274 274 274 275 275 275 275 275 275 274 274 273 273 273 273 272 272 272 273
255 255 255 255 255 255 255 256 256 258 260 261 262 263 263 263 263 263 263 264 264 264 264 265 265 265 266 266 267 267 268 268 268 269 269 270 270 271 271 272 273 274 274 275 275 274 274 274 275 275 275 275 274 274 274 273 273 273 272 273 273 273 273
255 255 255 255 255 255 255 256 257 258 260 261 262 263 263 264 264 264 264 264 264 264 264 264 265 265 266 266 267 267 268 268 269 269 269 270 270 271 271 272 273 273 273 274 274 274 274 274 274 275 275 274 274 274 274 274 274 273 273 273 273 273 273
254 254 255 255 255 255 255 256 257 259 260 261 262 263 264 264 264 264 264 264 264 264 264 265 265 266 266 266 267 267 268 268 269 270 270 270 271 271 272 272 273 273 273 274 274 274 275 275 274 275 274 274 274 274 274 274 273 273 273 272 272 271 271
254 254 254 255 255 255 256 256 257 259 260 261 262 264 264 264 265 265 265 265 265 265 265 265 265 266 266 267 267 267 268 269 270 270 271 271 271 272 272 272 273 273 273 274 274 274 275 275 275 275 275 275 274 274 274 274 273 272 272 272 271 271 271
254 254 254 255 255 255 256 256 258 259 261 262 263 264 265 265 265 265 265 265 265 266 265 265 266 266 267 267 267 268 269 270 270 271 271 272 272 272 272 272 273 273 273 274 274 275 275 275 275 275 275 275 275 275 274 273 273 272 272 272 272 271 271
254 254 254 255 255 256 256 257 258 259 261 263 264 265 265 266 266 266 266 266 266 266 266 266 266 266 267 268 268 269 270 271 271 271 272 272 273 272 272 272 273 273 273 273 273 274 275 275 275 275 275 275 275 275 275 274 273 273 272 272 272 271 271
254 254 255 255 256 256 257 258 259 260 261 263 265 265 266 267 267 267 268 267 267 267 266 266 267 267 267 268 269 270 271 271 271 272 273 273 273 273 273 273 273 273 273 273 273 274 274 275 275 275 275 276 276 276 275 274 273 273 273 272 272 271 271
254 254 255 256 256 257 258 259 259 260 262 264 265 266 266 267 267 268 268 268 268 267 267 267 267 267 267 268 269 270 271 272 272 273 273 273 273 273 273 273 273 273 273 273 273 273 273 274 274 274 275 275 275 276 276 275 274 273 273 273 272 272 272
254 255 255 256 257 258 258 259 260 261 262 264 265 266 267 267 268 269 269 269 268 268 267 267 267 267 267 268 269 270 271 272 273 273 274 274 274 274 274 273 273 273 273 273 272 272 272 273 273 273 273 274 274 275 275 275 274 273 273 273 273 272 272
254 255 256 256 257 258 259 259 260 261 262 264 265 266 267 268 269 270 270 270 269 268 268 268 268 268 268 269 270 271 272 273 273 274 274 274 274 274 274 274 273 272 272 272 272 271 271 271 272 272 272 273 273 273 274 275 274 274 273 273 273 273 273
255 255 256 257 257 258 259 260 261 262 263 263 264 265 267 268 270 270 270 270 269 269 269 269 269 269 269 270 271 272 272 273 274 274 274 275 275 274 274 273 272 272 271 271 271 271 270 270 271 271 271 272 272 273 273 274 275 274 274 273 273 273 273
255 256 256 257 258 258 259 260 261 262 263 263 264 265 266 268 270 270 270 269 269 269 269 269 269 270 270 271 271 272 272 273 273 274 274 275 275 275 274 273 272 271 271 271 270 270 270 270 270 271 271 271 272 272 273 274 274 274 274 273 273 273 273
256 256 257 257 258 259 259 260 261 262 263 263 264 265 266 268 270 270 270 269 268 268 268 268 269 269 269 270 271 272 272 273 273 274 274 275 275 275 274 273 272 271 270 270 270 270 270 270 270 270 271 271 272 272 273 274 274 273 273 273 273 272 272
256 256 257 258 258 259 260 260 261 262 263 263 264 265 267 269 270 270 270 269 268 268 267 267 268 268 269 270 272 272 272 273 273 273 273 274 274 274 273 272 272 272 271 270 270 270 270 270 270 270 270 271 272 272 273 274 274 274 273 273 273 273 273
256 256 257 258 259 259 260 260 261 262 263 264 265 266 267 269 270 270 270 268 268 267 267 267 268 269 270 271 271 272 272 272 272 272 272 273 273 273 273 272 272 272 271 271 270 270 270 270 270 270 270 271 271 272 272 273 274 274 274 274 274 274 274
256 257 258 258 258 259 259 260 261 262 263 264 265 266 267 268 269 270 269 268 268 268 268 269 269 270 271 271 271 271 271 271 271 272 272 272 272 272 272 272 272 271 271 271 270 270 270 270 270 270 270 271 271 272 272 273 273 274 274 274 274 274 274
257 257 257 257 257 258 259 260 261 262 263 264 264 265 266 267 268 268 268 268 268 268 269 270 270 270 270 271 271 271 271 271 271 271 271 271 272 272 272 272 272 272 271 271 270 270 270 270 270 271 271 271 271 271 272 272 273 274 274 275 275 275 275
256 257 257 257 257 257 258 259 261 262 263 263 264 264 264 265 266 266 265 266 266 265 265 267 268 269 269 270 270 270 270 270 270 271 271 271 271 271 271 272 272 272 271 271 271 270 271 271 271 271 271 271 271 271 271 272 272 273 274 275 275 275 275
255 256 256 256 256 257 257 259 260 262 262 263 263 263 262 263 264 264 263 263 263 263 262 263 264 265 265 266 268 268 269 270 270 270 270 271 271 271 271 271 272 272 272 272 271 271 271 271 271 271 272 272 272 271 271 272 272 273 273 274 275 275 275
254 255 255 255 256 256 257 258 260 261 262 262 262 262 260 260 261 262 261 261 261 260 260 261 261 262 262 263 264 265 266 268 269 270 271 271 271 271 271 271 272 272 273 272 272 272 272 272 272 272 272 272 272 272 272 272 272 273 273 274 275 275 275
252 253 254 254 255 255 256 257 259 260 261 261 261 260 259 258 258 259 259 259 258 259 259 259 260 260 260 261 262 262 263 264 266 267 269 271 271 271 272 272 272 272 273 273 273 273 272 272 272 273 273 273 273 273 273 273 273 273 274 274 274 275 275
251 252 252 253 254 254 255 256 257 258 259 260 260 259 257 256 256 257 257 257 257 257 258 258 258 259 259 259 260 261 261 262 263 264 266 269 270 271 272 272 272 273 273 273 273 274 273 273 273 274 274 274 274 274 274 274 274 274 274 274 275 275 275
250 251 252 252 253 253 254 255 256 257 258 259 258 257 256 255 255 256 256 256 256 257 257 257 258 258 258 258 258 259 260 261 261 262 265 268 270 271 272 273 273 273 273 274 274 274 274 274 274 275 275 274 274 274 275 275 275 275 275 275 275 275 275

ECMWFFLT1_925_thetae_090.txt.gz
Theta_e
263 263 263 263 263 263 263 263 262 262 262 262 262 262 262 262 262 262 263 263 263 263 263 263 263 263 264 264 264 264 265 265 265 265 266 266 267 268 268 269 271 272 272 273 275 276 276 277 278 278 278 279 279 279 279 279 279 279 279 279 279 280 279
263 262 262 262 262 262 262 262 262 262 262 262 262 262 262 262 262 262 262 262 262 262 263 263 263 263 263 263 263 263 264 264 264 264 265 265 266 266 267 268 269 270 271 272 273 274 275 276 277 278 278 278 279 279 279 279 279 279 279 279 279 279 279
262 262 262 262 262 261 261 261 261 261 261 261 261 261 261 261 261 261 261 261 261 262 262 262 262 262 262 262 262 262 263 263 263 263 264 264 265 266 266 267 268 268 269 270 271 272 273 274 275 277 277 278 278 278 278 278 278 278 278 279 279 279 279
261 261 261 261 261 261 261 261 261 261 260 260 260 260 260 260 260 260 260 261 261 261 261 261 261 261 261 261 262 262 262 262 262 263 263 264 264 265 265 266 266 267 267 268 269 270 271 273 274 275 276 277 277 278 278 278 278 278 278 278 278 279 279
261 261 260 260 260 260 260 260 260 260 260 260 260 260 260 260 260 260 260 260 260 260 260 260 260 260 261 261 261 261 262 262 262 262 263 263 264 264 265 265 265 266 266 267 268 268 269 270 272 273 275 276 277 277 278 278 278 278 278 278 278 278 278
260 260 260 260 260 259 259 259 259 259 259 259 259 259 259 259 259 259 259 259 259 260 260 260 260 260 260 261 261 261 262 262 262 262 262 263 263 264 264 264 265 265 265 266 267 267 268 269 270 272 273 275 276 277 278 278 278 278 278 278 278 278 278
259 259 259 259 259 259 259 259 258 258 258 258 258 258 258 258 259 259 259 259 259 259 259 260 260 260 260 261 261 261 262 262 262 262 262 263 263 263 264 264 264 265 265 265 266 267 267 268 269 270 272 274 276 276 277 278 278 278 278 278 278 278 278
259 258 258 258 258 258 258 258 258 258 258 257 257 257 257 257 258 258 258 259 259 260 260 260 260 261 261 261 261 262 262 262 262 262 263 263 263 263 264 264 264 265 265 265 266 266 267 268 269 270 271 273 275 276 277 277 278 278 277 277 278 277 277
258 258 257 257 257 257 257 257 257 257 257 257 257 257 257 258 258 259 259 260 260 260 261 261 261 262 262 262 262 262 262 263 263 263 263 263 263 264 264 264 265 265 265 266 266 266 267 268 269 270 271 272 274 276 276 277 277 277 277 277 277 277 277
257 257 257 256 256 256 256 256 256 256 256 257 258 258 259 260 260 261 261 261 261 262 262 262 262 263 263 263 263 263 263 263 264 264 264 264 264 264 264 264 265 265 266 266 266 267 267 268 269 270 270 271 273 275 276 277 277 277 277 277 277 277 277
256 256 256 256 256 256 256 255 255 256 257 258 259 260 260 261 261 262 262 263 263 263 263 263 263 263 263 263 263 264 264 264 264 265 265 265 265 265 265 265 265 265 266 266 266 267 267 268 269 269 270 271 272 273 275 276 277 277 277 277 277 277 277
256 256 255 255 255 255 255 255 255 256 257 258 259 260 261 261 262 262 263 263 263 263 263 264 264 264 264 264 264 264 264 264 265 265 265 266 266 266 266 266 266 266 267 267 267 267 267 268 268 269 270 271 272 273 275 276 276 277 277 277 277 277 277
255 255 255 255 255 255 254 254 255 256 258 258 260 261 261 261 262 262 263 263 263 263 264 264 264 264 264 264 264 265 265 265 265 265 265 265 266 266 266 267 267 267 268 268 268 268 268 268 268 268 269 269 270 272 274 275 276 276 277 277 277 277 277
255 255 255 255 254 254 254 254 254 256 258 259 260 261 262 262 262 262 262 263 263 263 264 264 264 265 265 265 265 265 265 265 265 265 265 265 265 265 266 266 267 267 268 268 268 268 268 268 268 268 268 269 269 270 272 274 275 276 276 276 277 277 277
255 255 255 254 254 254 254 254 255 257 258 259 260 261 262 261 261 262 262 263 263 263 264 264 264 265 265 265 265 266 266 266 266 266 265 265 265 265 265 266 266 266 266 267 267 267 268 268 268 268 268 269 269 269 270 271 273 275 276 276 276 276 276
255 254 254 254 254 254 254 254 255 257 258 259 260 261 261 260 261 262 262 263 263 264 264 264 265 265 265 265 266 266 267 267 267 267 266 266 266 266 266 266 266 266 266 266 267 267 267 267 268 268 268 269 269 270 270 270 271 272 274 276 276 276 276
254 254 254 254 254 254 254 254 255 256 258 259 260 260 260 260 261 262 263 263 264 264 265 265 265 266 266 266 266 267 267 268 269 269 268 267 266 266 266 266 266 266 267 267 267 268 268 268 268 268 269 269 270 270 270 271 271 272 273 275 275 275 276
254 254 254 254 254 254 254 254 255 256 258 259 260 260 260 261 262 262 263 264 264 265 265 266 266 267 267 267 267 268 268 269 269 269 269 268 267 267 266 267 266 266 267 267 267 268 268 269 269 269 270 270 270 271 271 271 272 272 273 275 275 275 276
254 254 254 254 254 254 254 255 255 256 258 259 260 260 261 261 262 263 263 264 265 265 266 267 267 268 268 269 269 269 270 270 270 270 270 269 269 268 268 267 267 267 267 267 267 268 268 268 269 269 270 270 270 271 271 272 272 273 273 274 275 275 275
253 253 253 253 254 254 255 255 256 256 257 259 260 260 261 262 262 263 264 265 265 266 267 267 268 268 269 270 270 270 271 271 271 271 271 270 269 269 269 268 268 268 268 268 268 268 268 268 269 269 269 270 270 271 271 271 272 273 273 274 275 275 275
253 253 253 254 254 255 255 256 256 256 257 259 259 260 261 262 262 263 264 265 266 267 267 267 267 268 269 270 270 270 270 271 271 271 271 270 269 269 269 269 269 269 269 269 269 269 269 269 269 270 270 270 271 271 271 272 272 273 273 274 275 275 275
253 253 254 254 255 255 256 256 257 257 258 259 260 260 261 262 262 264 265 265 266 266 266 266 267 268 269 269 270 270 271 271 271 271 272 271 271 270 270 270 270 270 270 270 270 270 270 270 270 270 271 271 272 272 272 273 273 273 274 274 275 275 275
253 254 254 255 256 256 256 257 257 257 258 258 259 260 261 261 262 264 265 265 265 265 265 265 266 266 268 269 270 271 271 271 272 272 272 272 272 272 272 272 272 271 271 271 271 271 271 271 271 271 272 272 272 273 273 273 274 274 274 274 275 275 275
254 254 255 256 256 256 257 257 257 257 258 258 258 260 260 261 262 264 264 264 264 264 264 264 265 266 267 269 270 270 271 271 271 272 272 272 272 272 272 273 273 273 272 272 272 272 272 272 272 272 272 273 273 273 274 274 274 275 274 274 274 275 275
254 255 255 256 256 256 257 257 257 257 257 257 258 259 260 261 262 263 263 264 264 263 263 263 264 265 266 267 268 269 270 271 271 272 272 272 272 273 273 273 273 273 273 273 273 273 273 273 273 273 273 273 273 273 274 274 274 275 275 275 274 274 274
255 255 256 256 256 257 257 257 257 257 257 257 258 258 259 261 262 262 263 263 263 262 262 262 263 264 264 264 266 267 269 270 270 271 271 272 272 272 273 273 274 274 274 274 274 273 273 273 273 273 273 273 273 274 274 274 275 275 275 274 273 273 274
255 255 256 256 257 257 257 257 257 257 257 257 258 258 259 261 262 262 263 263 261 261 261 261 262 262 262 262 263 264 266 267 268 269 270 271 271 272 272 273 273 274 274 274 274 274 274 274 273 273 273 273 273 273 274 274 275 275 274 273 273 273 274
255 255 255 256 257 257 256 256 256 256 257 257 257 258 260 261 261 262 262 262 260 260 260 260 261 261 261 261 262 262 263 264 265 266 267 268 270 271 272 272 272 273 273 273 274 274 274 273 273 273 273 273 273 273 274 274 274 274 274 274 274 274 274
255 255 256 256 256 256 255 256 256 256 256 257 258 259 260 261 260 261 262 261 259 259 259 259 260 260 260 260 261 261 261 262 262 263 264 265 267 269 271 273 273 273 273 273 274 273 273 273 273 272 272 273 273 273 273 274 274 274 274 274 274 274 274
255 256 256 256 255 255 255 256 256 256 256 257 259 259 260 260 260 261 261 260 258 258 258 259 259 259 259 259 260 260 260 260 260 261 262 263 265 267 270 272 273 273 273 273 273 273 273 272 272 272 272 272 272 272 273 273 274 274 274 274 274 274 274
255 256 255 255 255 255 255 255 255 255 256 257 258 259 259 259 259 260 260 258 257 257 257 258 258 259 259 259 259 259 259 259 259 260 260 261 263 265 268 271 273 272 272 273 273 273 273 272 272 272 272 272 272 272 272 273 274 274 275 274 274 275 275
255 255 255 255 255 255 254 254 254 254 255 256 258 259 259 258 258 258 258 257 256 256 257 257 257 258 258 258 258 258 258 258 258 258 259 260 261 263 266 269 271 272 272 272 272 272 272 272 272 272 272 272 272 272 272 273 273 274 274 275 274 275 275
253 253 253 253 253 254 254 253 253 254 255 256 257 259 258 257 256 257 257 256 256 256 256 256 256 257 257 257 257 257 257 257 257 257 258 259 260 262 263 265 268 271 272 272 272 272 272 272 272 272 272 272 272 272 272 272 273 273 274 275 275 275 275
251 251 251 251 251 252 252 252 252 253 254 255 257 258 257 255 255 255 255 255 255 255 255 255 255 256 256 256 256 256 256 256 256 257 257 258 258 260 262 264 267 270 272 272 272 273 272 272 272 272 272 272 272 272 272 272 272 273 274 274 275 275 275
251 251 250 250 250 250 250 250 251 252 253 255 257 257 255 253 253 254 254 254 254 254 255 255 255 255 255 255 256 256 256 256 256 256 256 257 257 259 260 262 265 269 271 272 272 272 272 272 272 272 272 272 272 272 272 272 272 272 273 274 275 275 275
250 250 250 250 250 250 249 250 250 251 253 255 256 255 254 252 252 253 253 253 253 254 254 254 254 254 255 255 255 255 255 255 255 255 255 256 256 257 259 260 262 264 267 270 272 273 272 272 272 272 272 272 272 272 272 272 272 272 273 274 275 275 275

ECMWFFLT1_925_thetae_093.txt.gz
Theta_e
265 265 265 264 264 264 264 264 264 264 264 264 264 264 264 264 264 264 264 264 264 264 264 264 265 265 265 265 265 265 265 266 266 267 267 267 267 267 268 268 269 269 270 270 271 271 272 272 273 274 274 275 276 277 278 278 279 279 280 280 280 280 280
264 264 264 264 264 264 264 264 264 264 263 263 263 263 263 263 263 263 263 264 264 264 264 264 264 264 264 264 264 264 265 265 265 265 266 266 266 266 267 267 268 268 269 269 270 270 271 271 272 272 273 274 275 276 277 277 278 279 279 279 280 280 280
264 264 264 264 264 263 263 263 263 263 263 263 263 263 263 263 263 263 263 263 263 263 263 263 263 263 263 264 264 264 264 264 264 264 264 265 265 265 266 266 267 267 268 268 269 269 270 270 270 271 272 273 273 274 275 276 277 278 279 279 279 279 279
263 263 263 263 263 263 262 262 262 262 262 262 262 262 262 262 262 262 262 262 262 262 262 262 262 263 263 263 263 263 263 263 263 264 264 264 264 265 265 265 266 266 267 268 268 268 269 269 270 270 271 271 272 273 274 275 276 277 278 278 279 279 279
263 263 262 262 262 262 262 262 262 262 261 261 261 261 261 261 261 261 261 261 261 261 262 261 261 262 262 262 262 262 262 262 263 263 263 264 264 264 265 265 266 266 266 267 267 268 268 268 268 269 269 270 271 271 272 273 274 276 277 277 278 278 279
262 262 262 261 261 261 261 261 261 261 261 261 261 261 261 261 261 261 261 261 261 261 261 261 261 261 261 261 261 261 262 262 262 262 263 263 263 264 264 265 265 265 266 266 266 267 267 267 268 268 268 269 270 270 271 272 273 274 275 276 277 278 278
261 261 261 261 261 261 261 260 260 260 260 260 260 260 260 260 260 260 260 260 260 260 260 260 260 260 261 261 261 261 261 262 262 262 262 263 263 263 264 264 264 265 265 266 266 266 266 267 267 267 268 268 269 270 270 271 272 273 274 276 277 278 278
260 260 260 260 260 260 260 259 259 259 259 259 259 259 259 259 259 259 259 259 259 259 260 260 260 260 261 261 261 261 261 262 262 262 262 263 263 263 263 264 264 264 265 265 266 266 266 266 267 267 267 268 269 269 270 271 271 272 273 275 276 277 278
260 259 259 259 259 259 259 259 258 258 258 258 258 258 259 259 259 259 259 259 259 259 260 260 260 261 261 261 262 262 262 262 262 262 262 263 263 263 264 264 264 264 265 265 266 266 266 267 267 267 267 268 268 269 270 271 271 272 273 274 276 277 277
259 259 258 258 258 258 258 258 258 258 258 259 259 259 259 259 259 260 260 260 260 260 261 261 261 262 262 262 262 262 263 263 263 263 263 263 263 264 264 264 264 265 265 265 266 266 267 267 267 267 268 268 268 269 270 270 271 272 273 274 275 276 277
258 258 258 257 257 257 257 257 257 257 258 259 260 260 260 260 260 261 261 261 261 262 262 262 263 263 263 263 263 263 263 263 264 264 264 264 264 264 264 264 264 265 265 265 266 266 267 267 267 267 268 268 268 268 269 270 271 271 272 274 275 276 277
257 257 257 257 257 257 257 257 257 257 259 259 260 260 260 260 261 261 262 262 262 262 262 263 263 263 263 264 264 264 264 264 264 264 265 265 265 265 266 266 265 265 265 265 266 266 266 267 267 267 268 268 268 268 269 269 270 271 272 273 275 276 277
257 257 257 257 256 256 256 256 256 257 258 259 260 261 261 261 261 261 262 262 262 262 262 262 263 263 263 264 264 264 265 265 265 265 265 265 265 265 266 266 267 267 266 266 266 266 266 267 267 267 268 268 268 268 269 269 270 271 272 273 274 275 276
257 257 256 256 256 256 256 256 256 257 258 259 260 261 261 261 261 261 261 261 261 261 262 262 262 263 263 264 264 264 265 265 265 265 265 265 265 265 266 266 267 267 268 267 267 267 267 267 267 267 268 268 268 268 268 269 269 270 270 271 272 273 274
257 256 256 256 256 256 256 256 256 257 258 259 261 261 261 261 261 261 261 261 261 261 262 262 262 263 263 264 264 264 265 265 265 266 266 266 266 266 266 266 266 266 267 267 267 267 267 267 267 268 268 268 268 268 268 268 269 269 269 270 270 271 271
256 256 256 256 256 256 256 256 256 257 258 259 260 261 260 260 260 261 261 261 261 262 262 262 263 263 264 264 264 265 265 266 266 267 267 267 266 266 266 266 266 267 267 267 267 267 267 268 268 268 268 268 268 268 268 268 268 269 269 269 269 270 270
256 256 256 256 256 256 255 255 256 257 258 259 260 261 260 260 260 261 261 262 262 262 263 263 263 264 264 265 265 265 266 267 268 268 268 268 268 267 267 267 267 267 268 268 268 268 268 268 268 269 269 269 269 269 269 269 269 269 269 269 269 269 270
256 256 256 256 256 255 255 255 255 256 258 259 260 260 260 260 261 261 261 262 262 263 263 263 264 265 265 266 266 266 267 268 269 269 269 269 269 269 268 268 268 268 268 268 269 269 269 269 270 270 270 270 270 270 269 269 269 269 269 269 269 270 270
256 256 256 256 255 255 255 255 255 256 257 259 260 260 260 260 261 261 262 262 262 263 263 264 265 265 266 266 267 267 268 269 269 270 270 270 270 270 270 269 269 269 269 268 268 269 269 269 269 269 269 270 270 270 270 270 270 269 269 269 270 270 271
255 255 255 255 255 255 255 255 256 256 257 258 259 260 261 261 261 261 262 262 262 263 263 264 265 265 266 266 266 267 267 268 269 270 270 270 271 271 270 270 270 270 270 269 269 268 268 268 268 268 268 268 268 269 269 270 270 270 270 270 270 270 271
255 255 255 255 255 255 255 256 256 257 257 259 259 260 261 261 261 261 262 262 262 263 264 264 264 265 265 265 265 266 267 268 269 269 269 270 271 272 271 271 271 270 270 270 269 269 268 268 268 268 268 268 268 268 269 269 269 270 270 270 270 270 271
254 254 255 255 255 255 256 256 257 257 258 259 259 260 261 261 261 261 262 262 262 263 263 264 264 265 264 264 265 266 267 268 269 269 269 270 272 272 272 272 272 271 270 270 270 269 269 269 268 268 268 268 268 269 269 269 269 269 269 270 270 270 271
254 255 255 255 256 256 257 257 257 258 258 258 259 260 260 260 261 261 261 261 262 263 263 263 264 264 263 264 265 266 267 267 268 268 269 270 271 272 272 272 272 272 271 270 270 270 269 269 269 269 269 269 269 269 270 270 270 270 269 270 270 270 271
255 255 255 256 256 257 257 257 257 258 258 258 258 259 260 260 260 260 260 261 262 262 263 263 263 263 263 264 265 265 266 265 265 266 267 268 269 271 272 272 272 272 272 271 271 270 270 270 270 270 270 270 270 270 270 270 270 270 270 270 270 271 271
255 255 255 256 256 257 257 257 257 258 258 258 258 258 259 260 260 259 260 261 262 262 263 263 263 263 263 263 263 263 263 263 263 264 265 266 267 269 271 272 272 272 272 272 272 271 271 271 271 270 270 270 271 271 271 271 271 271 271 271 271 271 271
255 255 256 256 256 257 257 257 257 257 257 257 257 258 258 258 258 259 260 261 262 262 262 261 261 261 261 262 262 262 262 262 262 263 263 264 265 267 268 270 271 272 272 273 273 273 272 272 271 271 271 271 271 272 272 272 272 272 272 272 272 272 272
255 255 256 256 256 256 256 257 257 257 257 257 257 257 257 257 258 259 260 261 261 261 260 260 260 260 261 261 261 261 261 261 261 261 262 262 263 264 265 267 268 270 271 272 273 273 273 273 273 272 272 272 272 272 272 273 273 273 273 273 273 273 273
255 256 256 256 256 256 256 257 257 256 256 257 257 257 257 257 258 260 260 261 261 260 259 259 259 259 260 260 260 260 260 260 260 260 260 261 261 262 263 265 266 268 271 273 273 273 274 273 273 273 273 273 273 273 273 273 273 273 273 274 274 273 273
256 256 256 256 256 256 256 256 256 256 256 257 257 257 258 258 259 260 260 260 260 259 258 258 259 259 259 259 259 259 259 259 259 259 259 259 260 261 262 263 265 267 270 273 274 274 273 273 273 274 274 273 273 273 273 273 273 274 274 274 274 273 272
257 256 256 256 256 256 256 256 256 256 256 257 257 257 258 259 259 260 260 260 259 258 258 258 258 258 258 258 258 258 258 258 258 258 258 259 259 260 261 262 264 265 267 270 273 274 274 273 273 274 273 273 273 273 273 273 273 274 274 274 274 274 274
257 257 257 257 256 256 255 255 255 256 256 256 257 258 259 259 259 259 259 259 258 257 257 257 257 257 257 257 257 257 258 258 258 258 258 258 258 259 260 261 262 263 264 266 270 273 274 273 273 273 273 273 273 273 273 273 273 273 274 274 274 274 274
256 256 256 256 256 255 255 255 255 255 255 256 257 257 258 259 259 258 258 258 257 256 256 256 256 256 256 256 257 257 257 257 257 257 257 257 257 258 259 259 260 261 262 265 269 272 273 273 273 273 273 273 273 273 273 273 273 273 274 274 274 274 274
255 255 255 255 255 255 254 255 255 255 255 255 256 256 258 258 258 257 257 257 255 255 255 255 256 256 256 256 256 256 256 256 256 256 256 257 257 257 258 258 259 260 262 264 267 271 273 273 273 273 273 273 273 273 273 273 273 273 273 274 274 274 274
253 254 254 253 253 253 253 253 253 253 253 254 255 256 257 257 256 255 255 255 254 254 255 255 255 255 255 255 255 255 256 256 256 256 256 256 256 256 257 257 258 260 261 262 264 268 272 273 273 273 273 273 273 272 272 272 272 273 273 273 274 274 274
252 253 252 252 252 252 252 252 252 252 252 253 255 256 256 255 254 254 254 254 254 254 254 254 254 254 254 255 255 255 255 255 255 255 255 256 256 256 256 257 258 259 260 261 261 264 268 272 273 273 273 273 273 273 272 272 272 272 273 273 274 274 274
252 252 252 252 252 252 252 252 251 251 252 254 255 255 254 253 253 253 253 253 253 253 253 253 253 254 254 254 254 254 254 255 255 255 255 255 255 255 256 256 258 258 259 259 260 261 264 267 271 273 273 273 273 273 272 272 272 272 273 273 273 274 274

ECMWFFLT1_925_thetae_099.txt.gz
Theta_e
264 264 264 264 264 263 263 263 263 263 263 262 262 262 262 262 262 262 262 262 262 262 262 262 262 262 262 262 262 262 262 262 263 263 263 263 263 264 264 264 264 265 265 265 265 265 266 266 266 266 267 267 267 267 267 267 267 268 268 269 270 270 271
264 264 264 264 263 263 263 263 263 262 262 262 262 262 262 262 262 262 262 262 262 262 262 262 262 262 262 262 262 262 262 262 262 262 262 262 263 263 263 264 264 264 264 264 265 265 265 265 265 265 266 266 266 266 266 266 267 267 268 268 269 270 270
264 264 263 263 263 263 263 262 262 262 262 261 261 261 261 261 261 261 261 261 261 261 261 261 261 261 261 261 261 261 261 261 261 261 262 262 262 262 262 263 263 264 264 264 264 264 264 265 265 265 265 265 265 265 266 266 267 267 268 268 268 269 269
263 263 263 263 263 262 262 262 262 261 261 261 261 261 261 261 261 260 260 261 261 260 261 261 261 261 261 261 261 261 261 261 261 261 261 261 261 262 262 262 262 263 263 263 264 264 264 264 264 264 264 265 265 265 266 266 266 266 267 267 267 268 268
263 263 263 262 262 262 262 261 261 261 261 260 260 260 260 260 260 260 260 260 260 260 260 260 260 260 260 260 260 260 260 260 260 260 261 261 261 261 261 261 262 262 262 263 263 263 264 264 264 264 264 265 265 265 265 266 266 266 266 266 267 267 267
263 263 262 262 262 261 261 261 260 260 260 260 260 260 259 259 259 259 259 259 259 259 259 260 260 260 260 260 260 260 260 260 260 260 260 260 260 260 261 261 261 261 262 262 262 263 263 263 263 264 264 264 264 265 265 265 266 266 266 266 266 267 267
262 262 262 261 261 261 260 260 260 260 259 259 259 259 259 259 259 259 259 259 259 259 259 259 259 259 259 259 259 259 260 260 260 260 260 260 260 260 260 260 261 261 261 261 262 262 262 262 263 263 263 264 264 264 265 265 265 266 266 266 266 266 267
262 262 261 261 260 260 260 259 259 259 259 259 259 259 259 259 259 259 259 259 259 259 260 259 260 260 260 260 260 260 260 260 260 260 260 260 260 260 260 260 260 261 261 261 261 262 262 262 262 263 263 263 264 264 264 265 265 265 266 266 266 266 267
262 261 261 260 260 260 259 259 259 259 259 259 259 259 259 260 260 260 260 260 260 260 260 260 260 260 260 260 260 260 260 260 260 260 260 260 260 260 260 260 260 261 261 261 261 262 262 262 262 263 263 263 264 264 264 265 265 265 266 266 266 267 267
261 261 260 260 259 259 259 258 258 258 259 259 260 260 260 260 260 261 260 260 260 260 260 260 260 260 260 260 260 260 260 261 261 261 261 261 261 261 260 260 261 261 261 261 262 262 262 262 262 263 263 263 263 264 264 265 265 265 266 266 266 266 267
261 260 260 259 259 259 258 258 258 258 259 260 261 261 261 261 261 261 261 261 261 261 260 260 260 260 260 260 260 260 261 261 261 261 262 262 262 262 262 262 262 261 261 262 262 262 262 262 262 263 263 263 263 264 264 264 265 265 266 266 266 266 267
260 260 259 259 259 258 258 258 258 258 259 260 261 262 262 261 261 261 261 261 260 260 260 260 260 260 260 260 260 260 261 261 261 261 262 262 262 262 263 263 263 263 263 262 262 262 262 262 263 263 263 263 263 263 264 264 265 265 265 266 266 266 267
260 259 259 259 258 258 258 258 258 258 259 260 261 262 262 261 261 261 260 260 260 260 260 260 260 260 260 260 260 260 260 260 261 261 261 261 262 262 262 263 263 264 264 264 264 264 263 263 263 263 263 264 264 264 264 264 265 265 265 266 266 266 267
259 259 259 258 258 258 257 257 257 258 259 260 261 262 262 261 260 260 260 259 259 259 259 259 260 260 260 260 260 260 260 260 261 261 261 261 261 261 262 262 263 263 264 264 264 264 265 265 265 264 264 264 264 264 264 265 265 265 265 266 266 266 267
259 259 258 258 258 257 257 257 257 258 259 260 260 261 261 260 259 259 259 259 259 259 259 259 260 260 260 260 260 260 261 261 261 262 262 262 262 262 262 263 263 263 263 264 264 264 264 265 265 265 265 265 265 265 265 265 265 265 265 266 266 266 266
259 258 258 258 257 257 257 257 257 258 258 259 260 260 260 259 259 258 259 259 259 259 259 260 260 260 260 260 260 261 261 262 262 263 263 263 264 264 264 264 264 264 265 265 265 265 265 265 265 266 266 266 266 266 266 266 265 265 266 266 266 266 266
258 258 257 257 257 256 256 256 256 257 258 259 259 260 259 259 259 258 258 259 259 259 260 260 260 260 260 261 261 261 262 263 263 264 264 264 265 265 265 265 266 266 266 267 267 267 267 267 267 267 268 268 268 268 267 267 266 266 266 266 266 266 267
258 257 257 257 256 256 256 256 256 257 258 258 259 259 259 259 259 259 259 259 259 260 260 260 260 261 261 261 261 261 262 263 264 264 265 265 265 266 266 266 266 267 267 267 267 267 268 268 268 268 269 269 269 269 269 269 267 267 267 266 266 267 267
257 257 257 256 256 256 256 256 256 256 257 258 259 259 259 258 259 259 259 260 260 260 260 260 261 261 260 261 261 262 262 263 264 265 265 265 266 266 266 266 266 266 266 266 266 267 267 267 268 268 269 269 269 269 270 270 270 269 268 267 267 267 267
257 257 256 256 256 256 256 256 256 256 256 257 258 259 259 259 259 259 260 260 260 261 261 260 260 260 259 260 261 261 262 263 264 265 265 265 265 265 265 266 265 265 264 264 264 265 265 266 266 267 268 268 269 269 269 270 270 270 270 269 268 268 268
256 256 256 256 256 256 256 256 256 256 256 257 258 258 259 259 259 259 259 260 261 261 260 260 259 259 258 259 260 261 262 263 264 265 265 264 264 265 265 264 263 262 262 262 262 263 264 265 265 266 267 268 268 269 269 269 269 270 270 270 269 269 268
256 256 256 256 256 256 256 256 256 255 256 256 257 258 259 259 259 259 260 260 260 260 259 258 258 258 258 259 260 261 262 263 264 264 263 263 264 264 264 262 261 260 260 260 261 262 263 265 266 267 268 268 268 269 268 268 269 269 270 270 270 270 269
256 256 256 255 255 255 255 255 256 255 255 256 257 258 258 259 259 259 260 260 259 258 258 258 257 258 259 260 261 262 262 263 263 262 262 262 263 262 261 260 259 259 259 259 259 260 262 263 265 267 268 268 268 269 268 268 268 269 269 269 270 270 270
256 256 255 255 255 255 256 256 255 256 256 256 256 257 258 258 259 259 259 259 258 257 257 257 258 258 260 261 261 262 262 261 261 260 261 261 260 260 259 259 258 257 258 258 258 259 260 262 264 266 267 268 269 269 269 269 269 269 269 269 269 269 269
256 256 255 255 255 255 256 256 256 256 256 256 256 256 257 258 258 259 258 258 257 257 257 258 258 259 260 261 261 261 260 259 259 259 259 259 258 258 258 257 257 257 257 257 258 258 260 261 262 264 266 267 268 269 269 269 269 269 269 268 268 268 268
256 256 255 255 255 255 256 256 256 256 256 256 256 256 257 257 257 257 257 257 257 257 257 258 259 259 259 259 259 259 258 258 257 257 257 257 257 257 257 256 257 257 257 257 258 258 259 260 261 263 264 265 266 268 269 269 269 269 268 268 268 268 268
256 256 256 256 256 256 256 256 256 256 256 256 256 256 257 257 257 257 257 257 257 257 258 258 258 259 259 258 258 257 256 256 256 256 256 256 256 256 256 256 256 256 257 257 257 257 258 259 260 261 262 263 264 266 268 269 270 269 269 268 268 268 267
256 256 256 256 256 256 256 256 256 256 256 257 257 257 257 257 257 257 257 257 258 258 258 258 258 258 258 257 256 255 255 255 255 255 255 255 255 255 255 255 256 256 256 256 256 257 257 258 259 260 261 263 264 265 267 269 270 270 269 269 268 268 268
257 257 258 258 257 257 257 257 257 257 258 258 258 258 258 258 258 258 258 258 259 259 258 258 257 256 256 255 254 254 254 254 254 254 254 254 255 255 255 255 255 256 256 256 256 256 256 257 259 260 261 262 264 265 267 270 271 270 270 269 269 269 269
259 260 260 260 259 259 258 258 258 258 258 259 259 258 258 258 258 258 258 259 259 258 257 256 255 254 254 253 253 253 253 253 253 253 254 254 254 254 254 254 255 255 255 255 255 256 256 258 259 260 260 262 263 264 267 270 271 270 270 270 269 269 270
260 261 261 260 260 260 259 259 258 258 258 258 258 258 257 258 258 258 258 258 257 256 255 254 253 253 252 252 252 252 253 253 253 253 253 253 253 254 254 254 254 254 254 255 255 255 256 257 258 259 260 261 262 263 266 269 271 270 270 270 270 270 271
259 260 260 260 259 259 259 258 258 257 258 258 257 257 257 257 257 256 256 256 255 254 253 253 252 252 252 252 252 252 252 252 252 252 252 253 253 253 253 253 253 254 254 254 255 255 256 256 257 258 259 259 261 262 264 267 270 271 270 270 271 271 271
257 258 258 258 258 258 258 257 257 257 257 257 256 256 256 256 255 255 254 253 252 251 251 251 251 252 252 252 251 251 251 251 252 252 252 252 252 253 253 253 253 253 253 254 255 255 255 255 256 257 257 258 259 260 262 265 268 270 271 271 271 271 271
255 255 255 255 255 256 256 256 255 255 255 255 255 255 256 255 254 254 253 251 250 249 250 250 250 251 251 251 251 251 251 251 251 251 251 252 252 252 252 252 252 252 253 254 254 254 254 255 255 255 256 257 258 258 260 262 265 268 270 270 270 271 271
254 254 254 254 254 254 254 254 254 254 254 254 254 256 256 254 253 252 251 250 249 249 249 249 249 250 250 250 250 250 250 250 250 250 251 251 251 252 252 252 252 252 253 254 254 254 254 254 254 254 255 256 256 257 259 260 263 265 268 270 270 270 270
254 254 254 254 254 254 254 253 253 253 253 254 256 256 255 253 251 250 249 249 249 249 249 249 249 249 249 249 249 249 249 250 250 250 250 251 251 251 251 251 251 252 253 253 253 253 253 253 253 253 254 255 255 257 258 259 261 263 266 268 270 271 271